Theta_e
305 304 302 302 301 302 302 302 302 302 302 302 302 302 302 303 302 298 292 295 293 283 284 285 285 282 283 282 281 284 285 286 285 282 277 276 278 279 278 282 284 283 282 282 277 277 276 271 277 280 276 274 274 272
304 305 304 303 303 302 302 302 302 302 302 302 302 302 303 302 301 300 292 296 296 288 286 289 287 289 288 287 286 287 286 287 288 284 279 277 273 279 277 279 284 282 283 281 281 278 270 270 271 272 274 272 271 270
303 304 305 305 304 303 303 303 302 302 302 303 303 303 303 303 303 300 293 294 292 285 286 286 286 288 291 288 289 285 285 290 288 288 282 278 274 279 277 278 278 278 278 276 273 270 269 268 268 269 270 269 269 269
302 303 304 304 304 304 304 303 303 303 302 303 303 303 304 304 303 299 293 292 292 287 282 282 291 286 290 289 289 290 290 291 291 288 282 276 273 282 278 279 280 274 276 271 268 268 268 269 269 268 267 267 266 267
301 302 303 303 304 303 304 304 304 304 303 303 304 304 304 304 302 293 291 289 290 288 279 282 285 288 289 290 290 291 292 288 285 283 281 279 280 281 278 277 272 268 272 273 274 269 269 268 268 268 266 266 266 265
297 299 303 303 303 303 305 304 303 304 304 304 304 304 304 301 299 295 285 290 290 290 281 279 284 284 285 288 286 284 285 284 283 280 278 278 280 280 277 278 266 264 263 262 264 263 265 265 265 266 264 264 265 265
295 297 300 302 302 303 306 305 304 304 304 304 305 305 303 300 289 286 284 286 289 288 284 275 276 283 283 285 284 283 281 278 279 278 271 277 276 277 274 270 263 262 263 263 263 264 262 261 261 262 263 263 262 261
294 295 297 301 301 301 302 304 304 304 304 303 301 299 297 295 291 285 285 286 290 286 279 269 271 279 281 281 280 282 278 278 273 272 273 274 275 271 269 264 262 261 261 260 259 260 261 259 259 258 258 258 258 258
293 294 295 298 300 299 300 301 302 301 300 299 298 296 290 285 283 283 290 287 281 281 268 264 267 269 278 280 280 278 280 273 272 272 269 271 268 269 264 263 261 260 260 258 257 256 257 257 256 254 254 252 254 253
292 292 293 294 295 298 299 298 298 300 299 297 290 285 281 281 287 286 280 280 275 270 270 267 267 268 275 274 272 275 276 273 272 268 269 263 263 260 260 261 261 259 257 257 255 254 253 252 254 252 250 249 251 251
291 291 291 291 293 295 298 297 296 293 293 286 281 274 280 283 282 275 270 272 269 267 263 263 267 264 272 269 273 276 273 271 270 267 269 266 269 263 258 256 256 256 256 253 251 252 252 254 253 251 248 246 247 247
290 290 290 289 291 293 294 293 291 284 282 283 277 278 276 268 268 269 262 267 264 261 260 264 265 267 269 274 276 274 270 268 266 260 268 265 267 257 255 254 253 255 254 251 249 250 249 252 250 250 248 246 245 246
289 290 289 288 288 292 292 291 290 288 283 280 274 270 270 264 265 265 264 262 263 259 259 261 266 267 270 274 272 274 270 268 262 264 262 265 260 257 254 252 249 244 246 247 245 245 248 246 244 247 247 245 245 246
288 289 288 288 286 287 287 285 284 280 273 267 267 265 262 260 258 257 257 256 258 260 258 260 261 266 267 269 268 270 260 260 260 261 263 262 258 256 250 247 249 247 247 249 248 245 247 248 246 244 245 245 246 247
286 287 288 286 285 284 283 281 277 268 265 262 266 260 256 257 256 255 254 255 255 256 257 259 261 266 267 268 263 260 261 260 261 264 261 255 250 253 250 248 248 249 248 247 244 246 246 245 246 247 246 246 245 244
284 282 281 286 283 282 278 270 264 262 258 260 257 257 251 254 254 251 248 250 253 253 252 253 254 260 258 257 261 263 262 261 263 257 253 249 251 251 250 250 250 249 248 246 245 245 246 247 248 248 243 243 244 244
282 269 284 285 282 279 278 262 259 254 255 257 254 247 250 249 253 250 247 250 254 249 253 249 258 258 255 255 258 255 260 261 255 251 246 247 253 253 249 249 248 248 247 245 245 245 246 243 242 244 247 248 244 245
268 274 283 282 271 268 257 258 257 257 252 248 254 251 245 246 247 246 245 249 249 248 247 254 255 256 256 258 257 259 253 247 245 246 248 247 246 247 250 250 248 248 248 247 245 245 243 244 246 250 246 244 241 241
272 276 281 279 268 261 260 258 257 255 249 245 246 247 245 245 245 246 244 247 247 248 249 250 254 256 258 255 257 251 246 249 252 250 249 246 248 250 249 247 249 247 249 247 245 249 249 249 250 248 248 243 247 245
282 282 279 277 272 262 258 255 254 258 253 252 246 247 247 248 245 240 241 244 247 245 250 252 258 258 259 257 255 254 252 252 252 250 250 249 247 247 250 250 252 250 248 243 242 245 242 244 245 245 244 245 244 250
274 271 275 264 259 255 253 249 252 249 247 251 243 247 250 245 245 245 244 242 246 251 255 255 254 251 242 243 243 245 250 254 254 256 257 253 249 251 248 248 246 246 248 248 250 249 247 250 250 247 247 248 249 251
264 276 262 265 260 254 254 248 253 248 251 246 247 244 247 250 247 244 241 245 251 258 256 254 251 248 245 248 248 245 246 247 244 247 250 254 251 249 248 250 247 249 249 251 251 253 252 252 247 246 245 249 247 247
271 269 263 261 262 258 253 248 252 247 255 252 245 252 250 245 244 243 248 250 253 248 244 245 243 240 245 240 239 241 242 250 249 247 247 247 245 246 249 251 252 253 252 253 251 252 252 250 249 248 247 245 245 245
268 259 259 257 258 254 248 249 248 247 247 249 251 254 252 246 245 248 254 251 253 240 243 243 243 246 245 244 246 249 250 247 246 244 243 249 249 249 249 253 252 255 256 247 251 252 251 250 250 248 248 247 246 248
268 262 259 256 250 255 253 251 249 252 254 245 251 253 251 242 251 249 253 258 248 244 245 241 242 245 255 252 247 247 245 252 253 255 251 252 247 248 248 247 249 252 250 249 249 247 248 244 248 248 248 248 250 249
265 255 258 258 253 259 256 255 252 255 247 249 249 244 241 248 253 257 257 257 253 253 249 253 256 250 251 253 253 249 253 251 250 252 253 254 255 257 257 255 254 256 253 254 255 253 253 252 251 249 250 250 251 251
264 260 248 241 247 249 249 245 245 250 251 256 250 248 250 255 256 261 257 254 256 256 256 260 262 262 265 260 256 248 247 254 254 253 248 252 256 258 260 258 257 258 254 254 256 256 256 255 254 254 254 252 252 252
260 255 264 253 247 245 253 248 252 256 256 250 253 255 257 259 263 263 261 254 248 245 247 246 246 250 251 251 250 252 245 245 246 247 247 248 249 252 254 256 250 257 252 253 254 255 256 257 256 255 255 255 254 252
257 251 255 250 246 245 254 259 258 255 251 256 259 256 258 258 256 254 253 248 243 249 251 251 249 243 244 243 244 245 249 252 254 253 254 259 253 258 253 255 255 256 253 252 257 257 256 256 256 256 256 255 254 252
254 249 255 254 260 262 254 245 247 239 238 241 240 247 249 251 251 247 246 245 250 254 257 254 252 253 255 254 253 247 246 252 258 262 262 262 261 254 253 254 255 255 256 255 255 255 262 262 260 260 255 253 252 251
248 250 255 255 257 248 243 238 236 237 238 238 235 242 248 246 247 249 250 251 253 248 250 250 249 253 254 255 255 255 257 254 253 255 256 251 249 248 250 252 253 253 254 255 255 255 256 257 257 257 257 255 255 254
249 254 258 259 255 244 242 246 245 246 245 245 245 238 244 246 252 259 250 248 249 250 254 257 257 258 256 258 258 254 256 256 256 255 255 256 257 255 254 252 252 252 252 253 253 254 255 255 255 255 255 254 254 254
251 252 251 254 253 253 248 249 251 252 251 251 252 250 246 247 256 259 251 251 253 255 255 256 257 253 255 257 259 259 257 254 253 259 257 258 257 257 255 254 254 253 253 253 253 254 255 254 254 254 253 252 253 253
Wind_Speed
37 25 25 29 29 28 26 27 24 22 23 24 23 22 20 23 23 9 2 3 3 2 1 1 2 5 4 3 5 4 3 1 2 8 5 5 4 5 2 3 4 8 7 5 4 1 8 3 0 7 3 6 8 7
33 31 31 22 28 26 26 25 24 23 21 22 22 21 21 23 23 17 2 2 3 4 2 0 2 2 1 3 4 3 5 4 2 2 2 3 1 2 4 2 4 5 2 6 3 3 4 5 4 5 2 7 5 9
33 32 27 29 23 28 25 26 27 26 25 23 22 21 21 22 25 16 3 4 5 2 2 1 4 1 1 0 3 4 2 3 4 4 2 3 3 2 5 5 2 2 2 4 5 2 3 4 8 6 8 11 11 10
32 28 28 24 21 20 28 26 25 26 26 24 23 21 21 22 24 11 3 2 4 3 3 2 1 2 6 5 6 4 3 3 4 5 2 2 3 3 2 2 1 0 3 7 4 3 5 1 6 10 13 13 12 9
31 28 26 23 18 12 19 26 29 26 25 25 23 22 22 22 20 9 4 2 0 2 3 2 1 2 5 3 5 5 4 5 2 2 2 2 1 2 1 2 3 3 5 5 5 7 2 7 13 13 13 12 10 12
32 31 26 25 21 17 8 34 32 29 24 23 21 22 23 25 20 4 3 2 4 3 4 3 1 3 4 5 11 10 5 4 3 1 0 1 1 2 3 4 3 3 2 2 2 6 12 13 10 8 11 10 10 10
31 30 28 24 27 30 24 36 34 25 25 23 23 23 25 21 6 4 1 2 5 1 3 2 2 2 4 2 3 2 4 3 3 2 2 1 2 2 1 3 5 5 6 9 7 7 8 4 6 7 10 10 9 9
29 28 29 22 26 29 31 29 27 23 22 25 28 28 27 25 15 4 5 7 2 4 4 4 2 1 6 2 2 3 2 2 5 1 1 2 1 2 3 4 8 7 7 5 7 5 6 13 10 7 6 6 8 7
27 26 25 24 21 24 27 26 28 32 31 30 26 19 7 7 3 1 9 9 6 5 4 4 4 3 7 2 1 2 1 4 2 3 2 2 2 5 1 8 11 7 4 9 7 8 9 11 9 6 5 4 6 4
26 24 23 22 20 15 19 19 21 25 26 18 9 4 3 2 4 3 6 4 6 6 6 4 1 1 4 3 2 1 2 2 2 3 2 3 4 0 1 3 6 6 9 9 8 4 4 4 6 5 4 3 4 4
23 22 21 19 18 16 15 15 14 12 8 4 4 2 1 5 2 4 4 5 4 4 5 2 1 1 3 2 1 2 1 2 3 1 1 2 4 3 4 4 4 6 6 5 1 1 4 6 9 7 4 3 3 3
20 20 18 18 14 11 9 8 9 7 2 4 7 5 3 6 4 7 2 1 4 2 4 1 2 2 3 2 1 1 1 3 3 3 1 3 1 4 5 4 3 5 6 5 3 6 5 9 7 7 5 4 3 3
16 19 17 15 13 15 19 20 21 19 4 4 7 7 5 6 7 3 5 2 2 3 3 3 2 1 2 3 2 1 2 2 1 2 5 4 4 6 5 5 4 3 5 6 4 5 7 6 4 4 5 3 4 3
9 18 19 15 14 10 12 14 11 8 8 7 5 6 5 4 2 0 1 1 2 2 3 2 3 1 2 3 1 3 0 2 3 1 6 3 6 9 6 3 6 6 5 7 7 5 6 6 4 2 3 4 5 4
5 10 17 16 11 13 15 17 13 7 6 6 4 4 3 1 1 1 1 0 2 3 3 1 2 2 2 3 3 4 3 2 6 6 4 2 3 10 8 6 6 7 7 5 4 4 4 5 4 3 4 4 4 3
3 5 10 14 9 8 9 10 9 5 6 5 8 5 0 2 1 2 1 1 1 1 1 2 1 4 3 3 3 4 5 6 5 4 3 4 6 7 7 8 6 5 6 5 4 4 4 6 6 5 2 4 5 4
8 2 15 4 12 16 15 7 6 10 6 6 2 1 2 2 3 3 3 3 1 3 1 3 4 5 1 4 2 4 6 5 4 3 1 2 6 8 6 6 6 6 6 5 5 5 5 3 4 2 3 4 4 6
2 5 12 3 5 5 5 7 7 7 7 1 3 3 1 1 2 2 2 1 3 2 3 3 2 3 5 6 5 5 3 2 2 2 2 3 3 4 6 8 6 7 7 6 4 4 4 5 5 5 4 3 2 3
4 5 13 6 5 7 6 6 5 6 2 2 1 0 2 2 2 2 1 1 1 1 2 2 3 3 5 5 4 3 3 4 4 3 1 1 3 6 6 4 5 6 7 6 6 5 5 7 5 4 4 4 4 3
2 12 8 15 6 6 8 4 2 6 4 3 2 1 1 1 1 2 2 2 2 2 1 4 6 5 5 4 4 4 3 5 5 3 2 2 2 5 7 7 6 5 4 2 1 3 1 3 4 5 4 4 3 6
3 4 7 7 6 9 7 1 5 2 3 3 1 1 0 3 3 1 1 2 3 4 4 5 5 4 1 1 1 1 3 6 5 5 5 5 4 5 4 3 4 3 4 5 6 5 6 8 4 4 5 6 7 6
3 6 4 5 7 5 7 2 4 2 4 2 2 1 1 1 2 3 2 1 5 6 5 4 4 4 2 3 4 5 3 5 3 3 4 8 6 4 5 6 6 6 7 8 7 8 8 6 4 4 4 6 4 4
5 4 5 5 8 8 2 2 5 5 4 3 2 2 2 2 4 2 3 5 6 3 2 2 3 1 3 0 1 2 5 7 4 4 3 3 1 2 4 6 7 7 7 7 6 6 6 4 5 5 4 2 3 3
8 8 6 4 4 2 2 4 2 3 3 3 3 2 3 3 3 4 4 5 5 0 2 4 4 3 3 2 3 5 6 5 2 0 3 5 3 4 5 5 6 7 6 3 5 6 5 6 5 4 5 5 5 5
6 3 5 2 3 6 4 2 3 4 3 2 2 3 3 2 2 2 6 6 3 3 4 3 2 2 4 3 2 4 4 8 8 9 4 6 3 2 1 3 5 7 4 4 5 5 5 3 4 6 6 7 8 8
3 3 3 6 1 6 7 5 6 8 4 2 6 2 2 3 1 8 6 5 5 6 8 11 11 5 5 7 4 4 6 8 5 4 4 9 10 7 6 5 4 6 10 10 7 9 8 7 7 9 8 9 9 7
6 7 2 1 2 6 5 3 2 4 6 8 5 4 3 3 8 8 4 4 4 5 6 7 10 10 8 5 5 2 3 10 7 4 2 5 7 8 7 7 9 6 7 11 10 10 10 9 8 9 9 5 8 9
3 6 9 6 2 1 7 3 6 9 6 3 6 6 10 11 8 6 6 2 2 1 2 2 2 3 3 4 4 7 3 3 3 2 2 3 5 5 7 6 3 5 5 6 8 7 8 8 8 8 8 8 7 7
3 3 5 4 2 2 6 8 8 5 3 6 7 6 7 6 4 3 3 1 2 3 3 3 3 2 3 3 2 2 6 9 11 8 8 7 3 6 9 8 7 7 6 5 9 9 10 7 7 7 8 6 5 4
3 1 4 4 8 8 3 2 3 1 0 0 1 4 4 5 5 2 3 3 4 6 4 3 5 7 7 8 5 4 5 6 8 8 8 9 8 3 5 6 8 7 7 7 8 5 8 8 5 6 4 4 3 3
1 1 1 1 3 1 0 0 0 0 1 1 1 2 5 7 9 5 6 5 4 3 4 3 4 7 7 8 8 6 8 9 13 14 7 3 2 3 4 4 4 5 6 8 7 7 7 7 7 7 8 8 8 8
2 3 2 3 1 1 1 1 1 1 0 1 2 1 4 4 6 6 4 4 4 5 10 8 8 10 10 6 5 3 2 4 8 11 14 9 9 6 5 4 4 5 5 6 6 6 8 8 7 8 8 9 9 8
1 1 1 3 3 3 2 1 1 1 2 2 3 3 3 4 9 6 2 6 4 5 7 8 6 3 6 11 10 7 6 4 5 8 9 10 9 8 6 5 6 6 8 6 6 6 8 8 7 8 8 8 9 8
Wind_Direction
18 149 158 173 177 174 177 180 184 180 176 181 182 179 179 174 176 155 166 152 126 150 192 159 168 151 150 175 156 189 112 152 195 188 165 204 168 202 258 200 168 198 171 194 85 185 240 9 288 171 91 42 102 86
13 31 174 166 175 177 178 179 180 180 179 181 186 186 181 182 177 176 136 131 93 74 96 270 129 85 303 322 155 219 155 131 228 223 202 104 147 173 140 259 245 199 211 165 164 206 35 5 69 32 67 117 103 105
13 27 42 179 169 179 185 184 187 184 185 185 184 183 182 182 177 174 130 121 71 67 19 286 221 90 140 65 288 137 297 177 161 120 249 174 191 150 158 225 231 119 355 83 115 154 133 100 66 67 87 101 95 95
16 24 35 50 172 174 183 189 185 186 187 186 184 183 182 179 188 151 113 129 108 119 165 208 310 334 291 273 200 223 151 65 91 103 255 165 172 258 121 136 227 58 83 119 66 108 91 174 138 127 109 105 103 93
19 23 26 34 48 94 196 190 189 181 179 181 183 177 175 170 145 87 79 65 144 159 161 134 31 340 325 5 140 185 138 117 107 140 217 147 71 116 60 84 220 188 159 173 202 158 127 135 148 141 130 129 129 124
19 19 22 24 23 2 216 185 186 178 174 175 176 174 169 147 133 112 110 334 3 36 110 135 260 355 345 31 71 60 39 66 90 99 164 89 91 50 195 201 124 117 75 213 134 75 89 101 95 108 119 122 115 119
19 20 18 31 27 21 104 150 158 153 164 167 164 159 147 144 70 84 59 321 301 260 91 68 24 11 325 355 49 76 32 52 61 94 37 77 62 19 129 228 128 103 89 104 105 107 73 336 144 106 110 106 97 85
22 22 21 43 42 45 58 89 121 128 127 116 115 108 102 99 108 59 18 23 176 93 73 111 278 59 5 24 72 10 78 110 34 97 27 28 102 47 253 114 127 123 122 72 31 37 83 109 96 87 85 107 108 105
24 23 27 32 59 57 64 71 96 103 106 103 94 84 75 39 64 57 339 28 39 65 110 70 129 220 340 37 63 45 21 57 305 67 38 321 13 222 1 160 159 167 182 135 83 67 83 101 110 100 98 75 120 122
22 27 25 29 34 59 61 73 85 100 105 80 41 48 70 43 337 356 16 29 24 2 22 77 235 337 338 1 27 105 26 106 52 17 319 67 260 137 19 20 124 132 135 134 103 92 95 95 143 142 157 131 118 129
24 26 27 25 27 39 56 53 48 91 98 42 74 92 246 328 82 37 52 40 342 41 9 325 331 47 328 67 75 15 116 126 139 235 214 308 271 156 121 99 89 125 130 78 54 119 130 135 151 145 136 124 115 121
29 33 29 28 30 31 46 54 43 59 55 116 120 88 56 32 37 80 14 10 31 170 332 343 318 334 308 339 178 300 119 44 218 335 81 274 150 116 139 140 99 108 114 85 42 108 102 111 122 125 127 140 173 184
35 36 38 41 43 59 70 73 89 105 105 51 51 55 27 328 47 120 201 252 158 352 8 341 131 285 284 249 77 89 102 138 211 40 224 237 132 160 149 119 103 53 105 123 102 86 96 113 108 124 146 194 166 181
61 37 43 45 51 65 70 70 68 61 59 64 59 48 38 358 31 207 331 24 12 339 352 318 272 313 262 51 359 130 152 63 52 15 240 235 186 161 138 141 130 173 164 146 143 140 132 136 154 178 181 157 155 197
63 61 33 40 62 75 70 63 66 50 62 69 43 75 61 227 67 119 234 326 346 321 333 312 277 288 19 97 29 110 45 271 207 226 232 241 182 148 161 170 170 165 170 164 153 146 155 152 152 184 209 188 182 179
39 62 18 35 45 82 42 40 37 68 56 66 49 100 282 106 296 358 350 260 288 326 23 39 77 53 350 116 75 215 123 217 245 221 218 149 158 162 168 177 180 157 156 151 149 154 149 169 179 198 168 198 207 194
46 22 341 39 97 68 46 70 60 48 90 58 47 16 95 79 161 202 167 215 233 79 140 95 70 207 79 44 329 192 201 219 219 267 244 236 180 174 141 136 152 157 158 155 156 170 183 154 130 111 232 243 216 220
61 288 348 99 133 67 36 43 80 75 61 215 108 233 204 151 149 287 250 250 89 120 109 195 126 109 168 164 261 237 233 255 227 220 218 192 176 144 157 163 164 168 167 172 175 161 155 164 182 226 215 224 266 245
210 16 18 54 113 89 73 20 51 97 191 212 254 60 157 216 227 130 115 359 132 155 71 39 85 200 232 217 209 234 219 197 171 188 189 240 175 160 156 136 149 164 173 174 183 195 198 198 209 197 210 165 221 223
148 42 60 43 58 80 64 7 44 95 142 199 65 17 152 185 284 60 43 27 87 92 68 199 216 215 188 222 190 178 166 143 129 82 314 246 190 157 178 172 186 170 162 150 220 191 196 270 235 218 204 201 197 242
99 339 41 72 50 62 83 26 48 115 143 101 268 75 272 10 21 3 315 14 56 215 242 212 224 241 262 272 277 121 149 163 181 171 175 170 182 178 167 188 144 147 172 188 204 217 206 226 221 185 188 214 221 235
263 4 66 30 80 50 78 326 118 176 81 154 94 74 82 199 257 249 193 118 230 231 197 180 209 153 156 211 202 205 194 134 114 105 69 113 137 168 201 188 160 197 203 210 202 213 220 220 185 189 195 231 199 223
12 42 45 41 77 50 269 69 74 358 107 242 35 54 296 308 225 131 257 221 255 234 183 158 158 131 155 240 113 241 205 166 182 189 177 184 203 140 137 173 187 187 208 228 200 211 225 181 199 201 201 188 191 231
29 51 64 62 64 167 25 27 49 70 50 44 89 291 277 235 303 49 251 255 242 318 190 192 158 95 30 25 226 213 193 181 140 220 193 159 179 224 200 194 194 212 211 152 180 208 212 213 186 194 195 204 210 224
77 332 88 3 6 88 78 40 10 68 182 202 101 287 274 14 56 264 234 263 245 226 200 157 197 246 182 222 287 235 185 171 185 207 191 190 124 82 261 230 231 225 159 167 215 205 218 179 192 198 201 206 220 221
221 287 142 180 204 140 177 136 190 190 136 153 225 284 19 89 74 242 233 221 215 185 180 186 183 178 242 214 194 189 204 179 130 185 214 188 193 193 198 193 221 247 194 204 197 202 212 196 201 204 220 222 220 218
216 218 221 262 93 113 81 34 68 119 158 187 186 146 110 195 241 248 266 222 202 212 188 177 179 189 205 177 194 179 147 164 171 190 172 182 198 204 195 193 211 226 164 186 198 200 205 199 206 209 220 208 210 210
181 173 175 171 119 303 133 131 164 192 197 192 111 178 182 198 234 232 213 227 169 134 120 105 87 141 150 178 156 130 101 100 81 8 308 252 220 221 223 232 192 163 163 175 187 186 197 200 199 199 203 217 223 202
168 179 130 111 117 203 207 176 198 210 154 159 169 207 231 230 248 240 252 203 144 132 134 177 225 98 65 52 63 122 142 157 150 172 219 238 303 241 199 208 209 201 182 177 201 192 195 192 194 197 204 209 216 190
192 248 105 163 167 206 206 160 185 209 54 121 306 305 285 266 250 199 154 150 172 206 209 180 133 174 189 180 186 231 225 214 211 197 198 219 224 199 168 182 196 193 181 185 194 193 221 202 204 200 180 193 193 195
130 176 39 76 200 77 76 178 208 199 69 55 2 200 264 309 303 239 209 202 193 144 143 188 202 200 181 188 187 180 226 206 222 230 239 184 161 180 186 183 170 159 172 181 179 181 182 199 203 206 210 217 214 214
180 205 183 165 167 110 224 231 122 130 12 35 258 278 306 336 279 276 180 129 126 196 221 215 210 221 206 222 208 219 176 142 176 203 209 218 225 209 185 168 154 157 160 165 167 173 184 194 196 205 219 226 227 221
202 191 121 133 139 167 159 173 45 329 214 241 233 187 208 214 246 284 252 217 197 190 198 207 218 200 186 196 211 215 200 189 177 182 183 193 194 191 175 170 165 168 170 165 169 171 186 195 207 213 219 224 230 229